This is the latest recevied weather packets stored in our database for station/object N3MFL. If no packets are shown the sender has not sent any weather packets the latest 10 day(s).
| Time | Temp. | Humidity | Pressure | Rain* | Wind** | Luminosity | Snow |
|---|---|---|---|---|---|---|---|
| 1777991714 | 19.44° C | 63% | 1012.1 hPa | 0 mm | - | 330 W/m² | - |
| 1777991411 | 18.89° C | 65% | 1012 hPa | 0 mm | - | 262 W/m² | - |
| 1777991108 | 18.89° C | 63% | 1011.9 hPa | 0 mm | - | 252 W/m² | - |
| 1777990805 | 20° C | 62% | 1012 hPa | 0 mm | - | 762 W/m² | - |
| 1777990502 | 19.44° C | 64% | 1011.9 hPa | 0 mm | - | 603 W/m² | - |
| 1777989895 | 20° C | 62% | 1011.9 hPa | 0 mm | - | 447 W/m² | - |
| 1777989592 | 19.44° C | 65% | 1012.1 hPa | 0 mm | - | 580 W/m² | - |
| 1777989289 | 18.89° C | 64% | 1011.9 hPa | 0 mm | - | 566 W/m² | - |
| 1777988985 | 18.89° C | 66% | 1012.1 hPa | 0 mm | - | 527 W/m² | - |
| 1777988682 | 18.33° C | 67% | 1012.2 hPa | 0 mm | - | 520 W/m² | - |
| 1777988378 | 17.78° C | 67% | 1012.2 hPa | 0 mm | - | 472 W/m² | - |
| 1777988076 | 17.78° C | 68% | 1012.1 hPa | 0 mm | - | 182 W/m² | - |
| 1777987771 | 17.78° C | 69% | 1012.2 hPa | 0 mm | - | 535 W/m² | - |
| 1777987468 | 17.78° C | 67% | 1012.3 hPa | 0 mm | - | 496 W/m² | - |
| 1777987166 | 17.78° C | 68% | 1012.3 hPa | 0 mm | - | 470 W/m² | - |
| 1777986862 | 17.22° C | 70% | 1012.4 hPa | 0 mm | - | 423 W/m² | - |
| 1777986560 | 16.67° C | 70% | 1012.3 hPa | 0 mm | - | 407 W/m² | - |
| 1777986258 | 16.11° C | 71% | 1012.4 hPa | 0 mm | - | 399 W/m² | - |
| 1777985956 | 16.11° C | 73% | 1012.5 hPa | 0 mm | - | 392 W/m² | - |
| 1777985653 | 15.56° C | 73% | 1012.6 hPa | 0 mm | - | 215 W/m² | - |
| 1777985349 | 16.11° C | 73% | 1012.6 hPa | 0 mm | - | 252 W/m² | - |
| 1777985046 | 15.56° C | 74% | 1012.4 hPa | 0 mm | - | 415 W/m² | - |
| 1777984742 | 15° C | 76% | 1012.4 hPa | 0 mm | - | 344 W/m² | - |
| 1777984439 | 15° C | 76% | 1012.3 hPa | 0 mm | - | 323 W/m² | - |
| 1777984134 | 15° C | 76% | 1012.6 hPa | 0 mm | - | 305 W/m² | - |
* Rain latest hour (hover to see other rain measurements)
** Current wind speed in m/s (hover to see current wind gust speed)